Temp
59 58 58 59 60 60 60 62 63 65 66 67 68 68 68 68 69 69 69 69 68 68 65 64 64 61 62 62 61 61 60 60 58 55 57 56 56 58 60 59 61 59 60
57 58 58 58 58 57 58 60 61 62 65 66 68 68 69 69 69 68 68 69 67 66 63 62 62 62 59 60 60 59 60 58 58 54 54 55 56 55 56 56 58 60 59
59 58 56 56 55 55 56 57 59 61 64 66 67 67 69 69 69 69 69 69 67 66 63 62 61 60 58 58 59 59 58 59 60 58 53 54 54 54 54 55 55 55 59
58 56 55 55 55 55 56 57 58 60 62 65 66 67 69 70 70 69 68 68 67 65 63 62 61 62 60 58 59 58 56 56 56 56 54 53 54 53 54 54 53 54 55
56 55 55 55 55 55 56 57 58 59 61 64 65 67 68 69 69 68 66 65 62 60 61 61 61 62 61 60 59 56 56 55 56 55 53 53 52 52 53 53 53 53 53
55 56 57 55 56 55 55 56 56 58 60 62 64 66 66 67 58 57 65 63 61 59 58 59 59 60 58 56 57 56 57 55 53 55 52 54 51 53 51 52 51 52 52
55 56 56 55 55 55 56 56 56 56 58 60 63 65 66 66 53 53 56 62 60 58 58 58 60 60 58 59 54 54 54 54 57 54 53 53 51 52 51 49 50 51 52
56 55 55 55 54 55 54 54 54 55 56 58 62 64 65 65 50 50 53 60 59 58 58 58 59 57 57 57 56 54 54 55 54 57 56 54 55 52 54 54 51 49 49
54 53 54 54 54 54 53 53 54 54 56 58 62 63 64 65 50 49 57 59 57 56 57 59 58 57 49 49 55 52 51 51 50 48 48 46 45 46 50 54 51 52 50
54 54 55 55 54 53 53 53 54 54 55 58 60 64 60 63 48 50 57 59 56 55 55 56 53 55 46 48 54 52 50 50 52 50 50 47 49 48 48 55 52 51 50
54 54 54 53 52 53 53 53 53 54 56 58 60 60 57 56 52 50 51 58 56 53 54 53 54 46 45 46 50 54 52 51 50 51 50 49 50 51 52 51 51 54 51
53 52 51 51 52 53 52 52 53 54 55 57 58 58 58 54 49 49 49 53 52 53 54 54 51 45 44 45 50 44 45 50 53 51 51 49 50 49 49 50 49 50 50
50 49 49 51 51 52 51 51 51 53 55 57 57 56 55 55 54 48 47 47 49 53 52 51 45 43 44 45 44 45 47 53 53 51 51 50 52 50 49 48 48 48 47
48 48 50 50 49 50 51 51 51 53 56 57 57 56 55 53 52 50 51 50 47 49 47 45 48 49 48 49 48 51 55 54 54 52 52 51 50 51 49 51 49 50 49
48 48 48 49 48 48 50 51 53 58 57 58 56 56 54 52 51 50 50 51 50 48 47 47 49 50 49 50 52 53 53 53 53 51 50 50 51 51 49 50 50 49 49
46 47 47 47 48 50 51 52 47 44 47 47 47 53 55 49 44 44 44 44 43 44 49 49 49 50 49 50 51 51 53 52 53 53 52 52 51 51 49 49 51 51 49
45 46 47 47 49 49 50 51 52 50 43 45 46 44 46 45 43 43 42 41 43 47 52 52 51 51 51 52 53 53 53 54 52 54 52 52 51 51 48 49 51 50 49
47 45 47 48 50 50 51 52 56 54 52 51 43 48 43 42 41 40 41 43 45 50 53 53 53 53 52 53 53 54 53 51 53 54 53 52 51 51 50 50 50 50 50
49 48 49 49 51 51 54 56 55 55 52 46 45 44 41 41 40 40 44 49 49 50 52 53 54 54 53 54 54 54 53 53 53 53 53 52 51 52 51 51 51 43 45
50 46 46 51 52 53 55 55 54 51 49 48 47 42 41 42 44 46 51 50 50 49 50 52 53 53 53 53 53 55 53 51 52 52 52 52 51 53 51 50 50 49 51
50 50 44 50 54 55 55 54 52 50 49 48 45 44 42 47 47 49 49 49 47 47 48 49 52 52 53 54 54 53 53 53 53 52 52 52 51 51 52 51 51 51 51
52 54 53 54 54 54 53 52 50 50 49 46 44 41 37 49 49 48 47 47 48 48 50 52 53 53 54 54 55 54 53 53 52 52 51 52 51 51 51 50 50 49 49
54 53 54 54 53 47 51 51 51 50 47 45 44 45 48 49 47 47 47 47 48 49 51 53 53 54 54 53 54 55 55 53 53 53 52 50 50 50 51 51 51 49 50
53 53 54 53 52 52 50 49 48 44 46 45 46 48 48 47 47 47 47 47 49 51 52 52 52 52 52 53 54 57 56 53 53 54 53 52 52 47 51 51 51 51 51
52 53 53 53 52 50 49 48 47 46 46 47 47 47 47 47 47 47 47 48 49 50 51 51 53 53 53 54 55 55 43 40 51 45 53 53 51 50 51 51 51 51 51
49 49 50 50 50 49 48 47 47 47 47 47 47 47 47 47 47 47 47 48 48 49 50 51 53 53 53 54 54 42 38 38 44 41 52 52 51 50 51 50 51 51 50
MSLP
1007.57 1007.79 1007.81 1007.71 1007.54 1007.44 1007.45 1007.19 1006.95 1006.49 1006.17 1005.93 1005.67 1005.67 1005.72 1005.91 1006.01 1006.59 1006.91 1007.14 1007.40 1008.11 1008.47 1009.12 1009.56 1010.15 1011.13 1011.57 1012.07 1012.75 1013.29 1013.98 1015.17 1016.90 1017.34 1017.87 1018.33 1018.54 1018.76 1019.41 1019.51 1020.25 1020.46
1007.45 1007.54 1007.41 1007.39 1007.32 1007.21 1006.99 1006.77 1006.53 1006.21 1005.68 1005.24 1004.93 1004.88 1004.78 1004.93 1005.01 1005.57 1005.83 1005.94 1006.27 1006.97 1007.58 1008.45 1009.04 1009.73 1010.77 1011.09 1011.61 1012.28 1012.86 1013.62 1014.51 1016.04 1017.25 1017.83 1018.19 1018.55 1019.15 1019.39 1019.47 1020.08 1020.45
1006.93 1006.91 1006.97 1006.92 1007.06 1006.93 1006.62 1006.18 1005.93 1005.64 1005.11 1004.51 1004.15 1004.01 1003.74 1003.73 1004.06 1004.23 1004.83 1004.99 1005.38 1005.62 1006.63 1007.28 1008.12 1009.29 1010.15 1010.67 1011.23 1011.99 1012.49 1013.47 1013.92 1014.98 1016.75 1017.62 1018.27 1018.47 1019.46 1019.79 1019.61 1020.14 1020.39
1006.43 1006.62 1006.59 1006.36 1006.33 1006.34 1006.07 1005.64 1005.27 1004.92 1004.51 1003.87 1003.34 1003.02 1002.79 1002.79 1003.09 1003.37 1003.85 1004.15 1004.78 1005.11 1005.69 1006.58 1007.35 1008.22 1009.24 1010.11 1010.77 1011.51 1012.32 1013.35 1014.22 1014.92 1016.37 1017.38 1017.93 1018.42 1019.11 1019.29 1019.73 1020.21 1020.39
1006.11 1006.07 1005.83 1005.55 1005.65 1005.67 1005.47 1004.97 1004.43 1004.07 1003.60 1003.14 1002.57 1001.97 1001.72 1001.68 1001.97 1002.38 1003.08 1003.38 1004.15 1004.77 1005.60 1006.40 1007.01 1007.57 1008.49 1009.22 1010.15 1011.35 1012.11 1013.30 1014.25 1015.07 1016.22 1017.21 1017.70 1018.08 1018.66 1018.95 1019.29 1020.03 1020.53
1005.29 1005.12 1004.86 1004.77 1004.81 1004.79 1004.67 1004.33 1003.87 1003.34 1002.93 1002.44 1001.71 1001.18 1000.92 1000.83 1000.95 1001.46 1001.97 1002.67 1003.38 1004.19 1005.11 1006.01 1006.47 1007.53 1008.47 1008.97 1009.81 1010.42 1011.20 1012.68 1013.86 1014.79 1015.87 1016.45 1017.10 1017.45 1018.32 1018.61 1019.13 1019.90 1020.42
1004.36 1004.26 1004.22 1004.16 1004.13 1003.97 1003.81 1003.53 1003.09 1002.63 1002.16 1001.66 1000.98 1000.45 1000.14 1000.07 1000.48 1000.87 1001.34 1001.92 1002.63 1003.53 1004.44 1005.22 1006.52 1007.47 1008.38 1009.29 1010.09 1010.65 1011.69 1012.33 1012.56 1013.50 1014.96 1015.56 1016.40 1017.10 1017.65 1018.43 1018.95 1019.68 1020.08
1003.43 1003.44 1003.47 1003.50 1003.48 1003.31 1002.98 1002.70 1002.30 1001.84 1001.25 1000.63 999.98 999.60 999.26 999.23 1000.09 1000.35 1000.85 1001.53 1002.34 1002.93 1004.07 1004.70 1005.64 1007.05 1008.11 1009.19 1010.03 1011.17 1012.24 1012.92 1013.48 1013.79 1014.33 1014.92 1015.47 1016.79 1017.24 1017.55 1018.54 1019.65 1020.34
1002.57 1002.68 1002.76 1002.78 1002.65 1002.54 1002.14 1001.76 1001.39 1000.92 1000.26 999.77 999.12 998.68 998.40 998.50 999.43 1000.01 1000.03 1000.92 1001.83 1002.56 1003.57 1004.23 1005.31 1006.58 1007.98 1008.77 1009.62 1011.15 1012.50 1013.45 1013.98 1014.27 1014.71 1015.35 1015.73 1016.77 1017.27 1017.54 1018.62 1019.31 1020.02
1002.01 1002.05 1001.94 1001.93 1001.81 1001.62 1001.24 1000.80 1000.39 1000.05 999.37 998.84 998.13 997.73 997.59 997.92 998.83 998.79 998.93 1000.39 1001.44 1002.55 1003.75 1004.43 1005.23 1006.31 1007.76 1008.52 1009.42 1010.79 1012.17 1013.44 1014.14 1014.98 1015.65 1016.19 1016.49 1017.14 1017.45 1017.15 1018.08 1018.87 1019.61
1001.13 1001.20 1001.01 1000.84 1000.78 1000.54 1000.29 999.80 999.45 999.03 998.43 997.83 997.19 997.10 997.15 997.48 998.02 997.20 998.26 999.39 1000.63 1002.13 1003.46 1004.70 1005.87 1006.50 1007.67 1008.39 1009.18 1010.13 1011.31 1013.01 1014.14 1014.53 1015.54 1016.35 1017.02 1017.34 1017.81 1018.19 1018.41 1018.73 1019.41
1000.10 1000.01 999.91 999.64 999.60 999.50 999.27 998.75 998.36 998.02 997.61 996.95 996.55 996.43 996.80 997.05 997.73 998.11 997.02 998.12 999.89 1001.43 1002.95 1004.25 1005.59 1006.70 1007.71 1008.67 1009.35 1010.47 1011.82 1012.95 1013.97 1014.64 1015.42 1016.34 1017.04 1017.56 1018.31 1018.82 1019.02 1019.27 1019.65
999.11 998.85 998.64 998.55 998.43 998.43 998.15 997.75 997.32 997.03 996.67 996.00 995.85 996.12 996.77 997.29 997.31 998.59 997.23 998.09 999.59 1001.40 1002.62 1003.82 1005.45 1006.91 1007.95 1009.04 1009.79 1010.91 1011.88 1012.85 1013.74 1014.75 1015.59 1016.28 1016.92 1017.59 1018.49 1019.25 1019.57 1019.96 1020.27
997.84 997.61 997.34 997.23 997.22 997.23 997.08 996.61 996.23 995.77 995.33 994.83 995.13 995.40 996.03 996.72 997.03 998.29 998.31 998.39 1000.15 1001.37 1002.85 1004.68 1006.00 1007.12 1008.17 1009.37 1010.62 1011.27 1011.91 1012.64 1013.30 1014.46 1015.68 1016.71 1017.28 1017.84 1018.54 1019.15 1019.47 1020.13 1020.53
996.74 996.42 996.16 996.12 996.21 996.05 995.83 995.28 994.85 994.23 993.97 993.69 994.10 994.33 995.13 995.84 996.80 997.51 998.41 998.64 999.52 1001.05 1003.03 1005.17 1006.37 1007.46 1008.74 1009.93 1010.77 1011.29 1012.13 1012.98 1013.62 1014.56 1015.77 1016.54 1017.08 1017.82 1018.67 1019.25 1019.45 1019.93 1020.53
995.55 995.19 995.07 995.09 994.91 994.65 994.53 994.15 993.78 993.48 993.08 993.14 993.24 993.51 994.79 995.25 996.34 997.14 998.30 998.78 999.66 1001.05 1002.83 1004.27 1005.92 1006.99 1008.27 1009.23 1010.10 1011.04 1011.99 1012.80 1013.49 1014.37 1015.34 1016.05 1016.71 1017.65 1018.41 1019.24 1019.29 1019.72 1020.43
994.34 994.01 993.94 993.89 993.72 993.52 993.55 993.41 993.05 992.75 992.27 992.47 993.19 993.72 993.96 995.07 995.99 997.21 998.30 998.96 999.91 1001.03 1002.30 1003.87 1005.15 1006.29 1007.56 1008.65 1009.46 1010.54 1011.43 1012.39 1013.39 1014.36 1014.83 1015.60 1016.39 1017.37 1018.13 1018.92 1019.28 1019.95 1020.65
992.82 992.72 992.81 992.78 992.62 992.49 992.42 992.34 992.05 992.07 992.47 992.97 993.42 993.75 993.99 994.74 995.89 997.30 998.36 999.25 1001.16 1001.56 1002.54 1003.52 1004.75 1005.91 1007.13 1007.97 1009.17 1010.24 1011.16 1012.41 1013.01 1013.78 1014.50 1015.39 1016.24 1016.85 1017.76 1018.52 1019.01 1019.58 1020.40
991.31 991.28 991.39 991.64 991.57 991.39 991.33 991.35 991.40 991.72 992.16 992.87 993.78 994.34 994.86 994.76 996.09 997.57 997.86 998.96 1000.19 1001.27 1002.41 1003.71 1004.65 1005.69 1006.71 1007.79 1008.91 1009.77 1010.80 1011.59 1012.49 1013.04 1013.96 1015.07 1015.95 1016.37 1017.21 1018.08 1018.67 1019.34 1020.13
989.91 989.97 990.25 990.47 990.60 990.65 990.58 990.55 991.01 991.58 992.24 992.79 993.75 994.94 996.01 996.92 997.97 998.30 998.41 999.25 1000.19 1001.34 1002.48 1003.56 1004.47 1005.51 1006.45 1007.45 1008.53 1009.43 1010.38 1011.69 1012.22 1012.62 1013.75 1014.65 1015.56 1016.04 1016.81 1017.65 1018.32 1019.13 1019.87
988.83 989.04 989.34 989.61 989.49 989.62 989.91 990.19 990.93 991.77 992.41 993.11 993.99 994.78 995.47 996.25 997.39 998.08 998.76 999.49 1000.39 1001.40 1002.56 1003.81 1004.61 1005.33 1006.25 1007.14 1008.36 1009.17 1010.27 1011.15 1011.45 1012.33 1013.42 1014.26 1015.10 1015.83 1016.62 1017.36 1018.27 1018.94 1019.58
987.84 988.21 988.41 988.34 988.47 988.85 989.51 990.07 990.58 991.32 992.09 993.24 994.39 995.40 995.94 996.47 997.29 998.15 998.99 999.76 1000.63 1001.63 1002.65 1003.64 1004.43 1005.30 1006.14 1006.94 1007.77 1008.83 1009.97 1010.47 1011.18 1012.15 1013.04 1013.89 1014.72 1015.61 1016.46 1017.25 1018.20 1018.76 1019.34
987.25 987.67 988.05 988.17 988.40 988.87 989.51 990.25 991.01 991.69 992.47 993.45 994.47 995.59 996.05 996.69 997.43 998.30 999.20 1000.06 1000.86 1001.95 1002.84 1003.73 1004.46 1005.32 1005.94 1006.72 1007.53 1008.23 1009.16 1010.01 1010.83 1011.63 1012.69 1013.60 1014.53 1015.38 1016.19 1016.98 1017.93 1018.51 1019.05
987.21 987.52 987.90 988.30 988.72 989.41 990.18 990.81 991.41 991.94 992.60 993.52 994.58 995.21 996.11 996.83 997.69 998.59 999.43 1000.29 1001.30 1002.23 1003.02 1003.72 1004.40 1005.13 1005.93 1006.83 1007.57 1008.11 1008.97 1009.88 1010.71 1011.33 1012.15 1013.24 1014.18 1015.24 1015.88 1016.73 1017.43 1018.05 1018.75
987.47 987.71 988.02 988.51 989.13 989.88 990.73 991.42 991.77 992.45 993.11 993.81 994.60 995.49 996.43 996.93 998.03 998.81 999.64 1000.86 1001.90 1002.67 1003.19 1003.79 1004.59 1005.31 1005.97 1006.81 1007.65 1008.35 1009.28 1009.94 1010.59 1011.48 1012.26 1013.05 1013.96 1014.87 1015.77 1016.48 1017.12 1017.91 1018.55
988.52 988.52 988.75 989.11 989.42 989.77 990.67 991.49 992.22 992.85 993.51 994.16 994.85 995.70 996.59 997.40 998.27 999.30 1000.51 1001.43 1002.03 1002.47 1003.21 1004.07 1004.74 1005.32 1006.11 1006.91 1007.68 1008.63 1009.49 1010.23 1010.97 1011.51 1012.32 1013.22 1014.07 1014.92 1015.71 1016.35 1017.04 1017.65 1018.30
Wind_Speed
2 4 4 5 6 5 5 7 8 8 10 12 13 13 13 13 13 14 16 15 16 13 9 11 11 7 7 6 5 4 4 3 5 2 2 2 3 6 8 8 9 6 5
5 5 5 5 6 6 5 7 7 9 10 12 12 13 14 14 14 14 16 16 18 16 12 12 10 7 9 8 7 7 6 4 5 8 3 3 3 4 7 9 7 5 4
4 4 6 6 6 7 7 6 8 10 11 11 11 14 15 15 14 15 18 18 17 16 14 13 12 12 10 7 7 7 6 4 4 7 5 2 2 5 5 4 6 4 3
5 6 7 7 7 7 8 8 9 10 11 12 12 14 14 14 14 15 15 16 15 13 13 14 14 15 14 12 9 8 7 7 6 8 5 4 2 4 4 7 5 2 3
7 7 10 8 6 7 9 10 10 11 11 12 13 14 13 12 12 16 15 16 14 11 11 11 12 14 17 15 11 9 10 7 8 8 5 3 3 6 7 4 3 3 2
8 10 11 7 6 8 10 11 10 11 12 13 14 14 13 10 14 19 21 15 14 16 14 10 10 14 14 15 13 18 16 13 9 7 4 7 5 6 4 5 4 4 3
10 11 10 8 8 9 11 12 12 11 12 13 14 13 14 13 15 17 19 13 14 13 12 12 11 8 13 12 13 14 10 9 16 9 10 8 7 9 8 6 4 3 2
13 11 8 8 9 10 11 12 13 11 12 12 13 14 13 12 19 21 20 14 12 14 14 15 14 14 13 14 14 11 9 7 6 4 7 8 5 9 7 5 6 6 4
12 8 8 9 11 12 12 13 12 12 11 12 13 15 14 13 24 22 21 14 11 12 11 13 14 15 16 19 15 13 10 6 8 10 11 10 14 12 10 9 7 6 3
8 8 9 11 13 14 13 13 13 13 13 10 13 15 13 15 22 28 19 11 13 10 9 10 17 17 20 19 16 15 12 9 11 11 9 11 11 11 6 4 7 6 4
11 12 13 13 14 14 13 11 13 13 12 12 14 8 5 5 14 25 26 15 13 11 11 10 9 23 21 19 19 14 14 13 12 11 10 8 8 7 5 6 5 5 4
13 13 14 14 11 10 11 12 13 12 12 12 8 6 5 6 9 19 27 23 20 15 13 10 11 21 19 18 14 21 20 16 10 9 9 8 8 8 7 7 8 9 8
13 14 14 13 11 11 11 14 11 11 11 11 7 6 6 7 8 14 23 25 21 14 10 13 23 21 20 13 24 24 19 11 11 10 9 9 8 9 10 9 9 11 11
14 15 13 12 11 11 9 10 12 10 11 9 8 8 7 8 7 7 5 16 21 16 21 16 18 16 12 13 17 15 11 11 12 11 10 8 9 8 8 7 8 7 8
15 15 14 10 10 12 11 11 10 12 10 11 11 10 10 9 10 14 16 13 14 17 18 12 12 11 10 10 11 10 9 9 10 9 10 10 10 9 8 6 8 5 8
14 12 11 9 9 9 9 10 12 8 16 12 9 12 7 11 21 19 17 20 27 27 14 14 13 12 12 12 13 11 10 11 9 10 10 10 10 9 9 7 7 8 9
15 14 9 9 9 9 9 9 9 3 2 15 14 12 15 17 23 23 22 28 30 21 13 14 13 13 13 12 12 12 11 9 10 9 10 10 10 9 9 8 8 8 7
15 18 9 8 9 8 9 9 8 6 5 5 7 11 15 24 22 22 28 26 13 9 11 13 13 12 12 12 12 11 10 9 9 9 9 9 9 10 10 9 9 9 8
10 9 9 9 8 9 8 9 6 5 6 6 6 10 8 24 29 30 28 15 15 12 12 11 12 12 12 11 11 10 10 10 10 9 9 9 9 10 9 9 9 8 8
10 13 9 8 8 9 9 6 6 6 7 7 7 10 9 12 11 14 11 12 12 11 11 11 10 10 11 11 10 11 10 9 10 9 9 9 8 8 9 9 9 10 9
7 6 10 8 9 8 7 8 8 8 8 8 8 11 17 14 13 10 12 11 12 11 10 9 9 9 9 10 10 9 9 9 10 10 9 8 9 8 8 8 8 8 9
6 6 5 6 6 7 7 8 8 8 9 10 8 8 10 11 11 10 11 11 11 10 10 10 9 9 10 11 11 11 10 10 9 9 10 10 9 8 8 9 8 8 9
4 4 4 5 6 8 7 7 8 8 9 9 11 12 9 10 10 10 11 11 10 10 9 9 10 10 9 9 9 11 11 10 9 10 10 9 9 9 9 10 10 9 9
3 5 6 7 7 8 8 8 7 8 9 10 11 11 10 11 12 12 11 10 9 9 9 9 9 12 10 10 8 9 8 8 8 10 14 11 9 9 9 9 10 11 9
3 4 6 7 8 8 10 9 9 9 10 10 10 9 10 11 12 11 11 10 10 9 9 9 9 13 14 14 12 11 10 12 11 10 8 11 12 13 10 9 10 9 9
7 7 7 7 7 7 7 8 8 9 10 10 10 10 11 12 11 11 10 9 8 8 10 7 11 14 15 11 13 13 12 12 12 11 9 9 10 8 8 10 13 9 10
Wind_Direction
294 279 274 290 298 300 284 284 280 270 252 242 236 221 211 206 208 214 214 214 208 209 187 190 196 156 180 170 150 141 138 132 126 123 97 139 126 154 148 156 145 138 131
234 240 267 281 287 293 287 287 287 283 271 253 242 229 219 213 208 215 222 210 207 197 190 181 185 159 175 166 159 163 149 145 131 145 132 136 113 143 152 156 147 155 146
241 258 268 264 279 277 275 275 285 289 280 267 246 237 228 218 213 211 218 216 205 190 182 182 174 162 162 161 153 155 146 148 136 144 136 127 111 134 141 145 145 162 190
275 266 262 262 262 270 278 278 280 281 280 273 260 245 232 219 220 213 213 202 199 190 177 181 167 170 168 161 152 151 139 133 122 131 118 121 133 118 149 160 153 179 199
249 252 256 254 256 268 282 285 285 280 279 272 266 253 234 222 225 206 197 189 173 169 167 171 172 166 162 162 149 153 140 132 142 136 131 138 152 148 181 160 133 147 173
247 253 255 247 256 268 277 277 279 275 276 273 262 250 228 219 206 198 198 185 169 167 166 160 147 146 153 149 151 152 152 150 150 142 146 163 163 152 153 156 124 149 185
259 264 250 246 254 263 271 279 274 273 273 269 258 252 238 220 188 180 176 175 166 161 159 153 154 154 151 148 137 127 130 156 160 146 160 178 154 170 153 147 137 134 150
265 249 234 248 253 260 269 273 274 268 267 266 258 245 232 218 181 175 165 161 160 155 163 160 156 151 153 147 139 127 123 121 133 141 167 163 138 151 155 144 134 114 99
256 236 240 241 262 270 262 264 267 268 266 265 258 250 230 221 179 176 166 159 153 150 155 153 153 151 149 143 135 131 125 104 77 96 104 112 117 127 139 121 129 140 119
258 249 255 264 263 265 257 257 265 265 268 267 263 247 237 220 182 167 159 156 151 143 151 144 149 149 147 145 140 143 136 144 135 122 104 96 116 120 81 113 145 138 122
270 261 260 258 257 254 250 253 263 265 263 268 258 203 141 185 183 176 156 160 156 147 152 150 155 144 147 142 142 149 146 140 129 119 116 118 127 122 100 100 103 128 130
262 258 259 261 251 248 241 256 259 257 264 261 221 157 148 159 164 192 153 152 151 152 159 155 144 144 137 132 131 124 127 130 128 125 125 127 135 126 115 106 96 86 68
262 261 257 254 251 242 242 253 262 252 249 245 197 165 151 175 172 240 149 139 144 142 148 143 140 135 125 110 129 131 134 136 136 135 131 130 129 122 118 105 93 89 77
262 262 257 252 242 239 240 252 253 246 247 200 180 184 164 166 165 155 204 133 126 124 118 128 138 131 116 127 133 140 142 146 146 141 133 129 127 129 123 129 115 111 92
258 259 257 248 233 246 242 246 244 247 231 194 182 175 176 165 170 164 157 148 141 135 122 128 134 136 132 142 154 144 143 145 144 134 142 147 140 136 134 136 127 116 115
253 252 246 237 237 235 238 255 239 253 240 222 184 172 177 148 151 153 157 143 132 136 136 147 149 148 151 156 158 153 157 158 150 148 151 151 147 150 147 150 134 135 136
247 249 241 230 235 233 235 241 251 236 258 182 170 152 151 153 153 152 143 136 140 134 146 153 155 155 157 160 160 162 164 165 154 159 156 157 156 153 151 159 150 148 148
243 240 235 227 229 226 230 231 233 206 168 148 46 166 148 143 139 137 135 127 133 127 147 153 156 157 159 156 160 165 156 155 161 164 158 155 161 160 161 166 167 160 166
242 230 218 218 227 225 228 232 185 174 138 129 109 67 120 139 140 142 146 142 152 145 150 157 160 159 159 160 161 161 163 163 163 156 150 153 159 161 165 170 167 162 156
252 218 210 213 213 222 229 177 155 144 138 136 127 124 122 125 142 156 146 150 144 142 147 152 153 156 161 157 159 159 153 158 160 150 154 154 156 156 156 157 155 160 171
233 207 208 221 232 196 173 162 152 151 145 135 136 146 151 146 153 154 148 143 139 138 135 142 152 146 149 151 152 150 160 165 159 153 158 155 153 151 153 151 151 161 159
192 207 191 192 162 147 149 140 145 145 135 131 131 140 145 146 147 145 140 139 140 137 143 153 153 157 158 160 157 155 164 161 152 152 153 156 155 151 151 150 155 157 157
169 157 150 149 135 125 120 126 136 138 134 131 135 149 151 146 136 139 138 134 134 139 147 156 158 160 156 151 155 155 159 159 156 149 148 148 151 150 156 155 160 158 165
147 142 137 132 131 119 118 124 127 112 130 135 145 147 143 135 133 135 129 127 127 137 145 146 151 148 139 141 148 150 150 142 148 150 144 150 150 150 151 160 164 165 160
64 109 121 133 132 123 125 128 123 132 134 137 138 133 132 125 126 123 120 128 137 142 138 136 142 144 141 142 146 144 132 134 138 135 144 145 150 152 157 160 159 163 158
44 64 72 86 99 106 114 120 125 126 132 132 130 126 130 125 119 119 125 129 132 125 123 132 143 140 143 145 141 129 133 128 133 133 138 145 146 147 151 151 160 159 162